User: anonymous
Location: Unspecified
(0.0000°N, 0.0000°E)
Time: 19:20:47
(UTC+00:00)
Language:

SO-67 - Orbit

View from above orbital plane
View from above orbital plane
View from above satellite
View from above satellite

Ground track
Ground track

The orbit data is extracted from the following two-line orbital elements,

1 35870U 09049F   14203.17213877  .00002703  00000-0  85857-4 0  3556
2 35870 097.1598 223.3274 0001607 055.9017 007.9051 15.33474934269415
Epoch (UTC): 22 July 2014 04:07:52
Eccentricity: 0.0001607
inclination: 97.1598°
perigee height: 464 km
apogee height: 466 km
right ascension of ascending node: 223.3274°
argument of perigee: 55.9017°
revolutions per day: 15.33474934
mean anomaly at epoch: 7.9051°
orbit number at epoch: 26941

The dashed part of the orbit path shows where the satellite is in the earth's shadow,  

DLR